www.pogodaiklimat.ru
ПОГОДА в Аткинсоне
Время
(UTC), дата
08:35 09.12
08:55 09.12
09:15 09.12
09:35 09.12
09:55 09.12
10:15 09.12
10:35 09.12
10:55 09.12
11:15 09.12
11:35 09.12
11:55 09.12
12:15 09.12
12:35 09.12
12:55 09.12
13:15 09.12
13:35 09.12
13:55 09.12
14:15 09.12
14:35 09.12
14:55 09.12
15:15 09.12
15:35 09.12
15:55 09.12
16:15 09.12
16:35 09.12
16:55 09.12
17:15 09.12
17:35 09.12
17:55 09.12
18:15 09.12
18:35 09.12
18:55 09.12
19:15 09.12
19:35 09.12
19:55 09.12
20:15 09.12
20:35 09.12
20:55 09.12
21:15 09.12
21:35 09.12
21:55 09.12
22:15 09.12
22:35 09.12
22:55 09.12
23:15 09.12
23:35 09.12
23:55 09.12
00:15 09.12
Ветер
(напр.,м/с)
Видим. Явления Облачность Т
(С)
Тd
(С)
f
(%)
Тe
(С)
Тes
(С)
Комфортность P
(гПа)
Po
(гПа)
Тmin
(С)
Tmax
(С)
R
(мм)
R24
(мм)
S
(см)
0 11 км 8/8 480 м +8.0 +7.7 98 +7 +7 966.9
ЮВ 2 6 км дымка 5/5 420 м +7.5 +7.1 97 +5 +5 966.9
0 3 км дымка 5/5 330 м +6.8 +6.6 99 +6 +6 966.9
0 800 м туман 5/5 330 м +6.6 +6.5 99 +5 +5 966.6
0 2 км дымка 10/10 390 м +5.7 +5.7 100 +4 +4 967.3
0 4 км дымка 10/10 330 м +5.7 +5.8 100 +4 +4 966.9
0 5 км дымка 10/10 270 м +6.3 +6.3 100 +5 +5 966.6
0 6 км дымка 10/10 210 м +6.6 +6.6 100 +5 +5 966.9
0 6 км дымка 10/10 210 м +7.1 +7.1 100 +6 +6 966.9
0 5 км дымка 10/10 150 м +7.6 +7.5 99 +7 +7 967.3
0 4 км дымка 10/10 150 м +7.7 +7.7 100 +7 +7 967.9
0 2 км дымка 10/10 90 м +8.2 +8.2 100 +7 +7 968.3
0 2 км дымка 10/10 90 м +8.6 +8.7 100 +8 +8 968.3
СЗ 3 4 км дымка 10/10 90 м +8.8 +8.9 100 +6 +6 968.6
З 1 6 км дымка 10/10 90 м +8.8 +8.8 100 +7 +7 968.9
СЗ 3 11 км 10/10 180 м +9.1 +8.6 97 +6 +6 969.6
СЗ 4 11 км 10/10 300 м +9.2 +8.2 93 +6 +6 969.9
СЗ 3 11 км 10/10 300 м +9.3 +7.8 90 +7 +7 970.5
СЗ 4 16 км 10/10 420 м +9.5 +7.7 89 +6 +6 970.5
СЗ 4
{8}
16 км 10/10 420 м +9.5 +7.4 87 +6 +6 971.2
С 6
{9}
16 км 10/10 420 м +9.5 +7.2 86 +6 +6 972.2
СЗ 6
{9}
16 км 10/10 420 м +8.9 +6.6 85 +5 +5 972.5
СЗ 6
{9}
16 км 10/10 300 м +7.5 +5.6 88 +3 +3 973.2
СЗ 6
{9}
11 км 10/10 300 м +6.7 +4.8 88 +2 +2 973.5
СЗ 6
{10}
16 км 10/10 420 м +6.2 +4.0 86 +1 +1 974.1
СЗ 6
{9}
16 км 10/10 420 м +5.9 +3.2 83 +1 +1 974.5
СЗ 6
{10}
11 км 10/10 300 м +5.1 +2.9 86 -0 -0 974.8
СЗ 6
{10}
16 км 10/10 360 м +4.1 +1.9 86 -2 -2 975.1
СЗ 5
{11}
16 км 10/10 420 м +3.8 +0.8 81 -2 -2 975.8
СЗ 6
{10}
16 км 10/10 480 м +2.7 -0.2 81 -3 -3 976.1
СЗ 5
{11}
16 км 10/10 480 м +2.2 -1.2 78 -4 -4 976.4
СЗ 6
{11}
16 км 5/5 540 м +2.3 -1.8 74 -4 -3 976.8
С 7
{11}
16 км ясно +2.6 -2.4 70 -4 -3 977.1
СЗ 7
{13}
16 км ясно +2.9 -3.0 65 -3 -3 977.4
СЗ 6
{10}
16 км ясно +2.4 -3.8 64 -3 -2 978.1
СЗ 6
{10}
16 км ясно +2.0 -4.2 63 -4 -4 978.4
С 6
{10}
16 км ясно +1.8 -4.4 63 -4 -3 978.7
С 4 16 км ясно +1.5 -5.1 61 -4 -2 979.4
СЗ 4
{10}
16 км ясно +1.0 -5.3 63 -4 -4 980.0
С 3
{8}
16 км ясно +0.7 -5.7 62 -4 -3 980.4
СЗ 4
{9}
16 км ясно +0.4 -5.9 63 -5 -5 980.7
СЗ 4
{7}
16 км ясно 0.0 -6.2 63 -5 -5 981.3
СЗ 4 16 км ясно 0.0 -6.2 63 -6 -6 982.0
С 3 16 км ясно 0.0 -6.5 62 -5 -5 982.0
СЗ 4
{8}
16 км ясно -0.2 -6.8 61 -6 -6 982.6
СЗ 4 16 км ясно -0.5 -7.0 61 -6 -6 983.3
СЗ 2 16 км ясно -0.6 -7.0 62 -5 -5 983.6
С 4 16 км ясно -0.9 -7.1 63 -7 -7 984.0
Местоположение метеостанции Atkinson Municipal Airport: широта 37.4494 долгота -94.7311 высота над уровнем моря 290 м.
В архиве по умолчанию представлена погода в Аткинсоне за последние 1-2 суток. Обновление информации о фактической погоде в базе происходит ежечасно! Архивные данные за месяц целиком и за предыдущие месяцы Вы можете получить, выбрав интересующий диапазон дат из раскрывающегося списка и нажав кнопку "Ввод!".
Внимание! Архив погоды МЕТАР в базе сайта по станциям, не включенным в климатический монитор, хранится не более 60 дней. Нет смысла пытаться выбрать более раннюю дату.
*Определитесь, кто Вы:
Внимание! Время в таблицах - всемирное. Для получения местного времени необходимо прибавить поправку, которая равна ч.
Смотрите также архив погоды в соседних городах и на ближайших метеорологических станциях:
Партнеры нашего сайта:      
Пояснения к столбцам:
  • Ветер - указаны скорость ветра в м/с - средняя за 10 мин, порывы в срок и между сроками (в фигурных скобках) и направление, откуда дует ветер: С - северный,
  • СВ - северо-восточный, В - восточный, ЮВ - юго-восточный, Ю - южный, ЮЗ - юго-западный, З - западный, СЗ - северо-западный.
  • Видимость - горизонтальная дальность видимости в метрах или километрах. При видимости от 1 до 10 км при отсутствии осадков обычно наблюдается дымка, при ухудшении видимости до 1 км и менее - туман. В сухую погоду видимость может ухудшаться дымом, пылью или мглою.
  • Явления - указаны атмосферные явления, наблюдавшиеся в срок или в последний час перед сроком; фигурными скобками обозначены явления, наблюдавшиеся между сроками (за 1-3 часа до срока); квадратными скобками обозначены град или гололедные отложения с указанием их диаметра в мм.
  • Облачность - указаны через наклонную черту общая и нижняя облачность в баллах и высота нижней границы облаков в метрах; квадратными скобками обозначены формы облаков: Ci - перистые, Cs - перисто-слоистые, Cc - перисто-кучевые, Ac - высококучевые, As - высокослоистые, Sc - слоисто-кучевые, Ns - слоисто-дождевые, Cu - кучевые, Cb - кучево-дождевые. Подробнее классификацию облаков см. в Атласе облаков (PDF).
  • T - Температура воздуха - температура, измеренная на высоте 2 м над землей.
  • Td - Температура точки росы - температура, при понижении до которой содержащийся в воздухе водяной пар достигнет насыщения.
  • f - Относительная влажность воздуха - влажноcть воздуха, измеренная на высоте 2 м над землей.
  • Te - Эффективная температура - температура, которую ощущает одетый по сезону человек в тени. Характеристика душности погоды. При расчете учитывается влияние влажности воздуха и скорости ветра на теплоощущения человека.
  • Tes - Эффективная температура на солнце - температура, которую ощущает человек, с поправкой на солнечный нагрев. Характеристика знойности погоды. Зависит от высоты солнца над горизонтом, облачности и скорости ветра. Ночью, в пасмурную погоду, а также при ветре 12 м/с и более поправка равна нулю.
  • P - Атмосферное давление - приведенное к уровню моря атмосферное давление.
  • Po - Атмосферное давление - измеренное на уровне метеостанции атмосферное давление.
  • Tmin - Минимальная температура - минимум температуры воздуха на высоте 2 м над землей.
  • Tmax - Максимальная температура - максимум температуры воздуха на высоте 2 м над землей.
  • R - Количество осадков - Количество выпавших осадков за период времени, мм. При наведении курсора мыши на число - период времени, за который выпало указанное количество осадков.
  • R24 - Количество осадков - Количество выпавших осадков за 24 часа, мм.
  • S - Снежный покров - Высота снежного покрова, см. При наведении курсора мыши на число - состояние снежного покрова и степень покрытия местности в баллах.